Regional Weather Roundup
Issued by NWS Bismarck, ND

Home | Current Version | Previous Version | Text Only | Print | Product List | Glossary On
Versions: 1 2 3 4 5 6 7 8 9 10 11 12 13 14 15 16 17 18 19 20 21 22 23 24 25 26 27 28 29 30 31 32 33 34 35 36 37 38 39 40 41 42 43 44 45 46 47 48 49 50
000
ASUS43 KBIS 020310
RWRBIS

NWR BROADCAST TEXT
NATIONAL WEATHER SERVICE BISMARCK ND
1000 PM CDT SUN MAY 01 2016

NOTE: "FAIR" INDICATES FEW OR NO CLOUDS BELOW 12,000 FEET WITH NO
SIGNIFICANT WEATHER AND/OR OBSTRUCTIONS TO VISIBILITY.


CITY           SKY/WX    TMP DP  RH WIND       PRES   REMARKS
WILLISTON      PTCLDY    55  31  39 SW6       30.12F
MINOT          CLEAR     57  26  30 SE5       30.11F
MINOT AFB      CLEAR     53  27  37 S7        30.09F
BISMARCK       CLEAR     49  32  52 CALM      30.16S
DICKINSON      CLEAR     49  29  46 NW5       30.16R
GARRISON         N/A     52  27  38 CALM      30.13S
HETTINGER ARPT CLEAR     41  31  67 W5        30.19R
JAMESTOWN      CLEAR     50  29  44 CALM      30.14S
BEACH          FAIR      46  28  49 CALM      30.21S
CARRINGTON     FAIR      52  25  35 CALM      30.16S
HAZEN          FAIR      41  32  70 SE7       30.16S
LINTON         FAIR      45  32  61 E3        30.19S
MANDAN         FAIR      52  30  43 S6        30.17S
OAKES            N/A    N/A N/A N/A MISG        N/A
RUGBY          FAIR      52  28  40 S7        30.12S
STANLEY        FAIR      46  34  61 S6        30.14F
WATFORD CITY   FAIR      50  30  46 SW6       30.14F
$$

CITY           SKY/WX    TMP DP  RH WIND       PRES   REMARKS
GRAND FORKS    PTCLDY    54  30  40 E7        30.12S
GRAND FORKS AF CLEAR     47  34  59 SW3       30.12F
DEVILS LAKE    CLEAR     53  32  44 SW6       30.13S
FARGO          CLEAR     54  27  35 CALM      30.13R
CANDO          FAIR      52  27  37 CALM      30.14S
CAVALIER       FAIR      52  36  54 SW6       30.11S
GRAFTON        FAIR      54  32  43 CALM      30.14S HAZE
GWINNER        FAIR      54  32  43 CALM      30.15S
LANGDON        FAIR      52  27  37 SE9       30.13R
ROLLA          FAIR      50  27  40 S3        30.12F
WALHALLA       FAIR      55  28  35 S5        30.12R
$$

CITY           SKY/WX    TMP DP  RH WIND       PRES   REMARKS
ABERDEEN       CLEAR     45  33  63 SW5       30.16S
MOBRIDGE       CLEAR     45  34  65 CALM      30.15F
BUFFALO          N/A     51  30  44 NW13      30.14S
RAPID CITY     CLEAR     39  30  70 NE6       30.22R
GLASGOW        MOCLDY    58  33  39 W5        30.17S
SIDNEY         CLOUDY    54  30  40 W9        30.15S
WOLF POINT     CLOUDY    56  35  45 W6        30.15S
GLENDIVE       CLEAR     46  34  61 NW8       30.20S
MILES CITY     CLEAR     52  35  52 SW7       30.19F
BAKER          CLEAR     48  33  56 W9        30.20S
$$

CITY           SKY/WX    TMP DP  RH WIND       PRES   REMARKS
BILLINGS       PTCLDY    54  31  41 NE3       30.21S
GREAT FALLS    CLEAR     50  34  54 NE7       30.18S
REGINA         MOCLDY    57  34  41 W7        30.07F
ESTEVAN        MOCLDY    54  30  40 SW6       30.07F
$$





USA.gov is the U.S. government's official web portal to all federal, state and local government web resources and services.